Location: Berkeley
(37.8716°N, 122.2727°W)
Time: 07:49:16
(UTC-07:00)

Amateur Radio Satellites - All Passes

Search period start: 23 May 2017 07:19
Search period end: 24 May 2017 07:19
Location: Berkeley, 37.8716°N, 122.2727°W

Satellite Date Start Highest point End Downlink Frequencies (MHz)
Time Altitude Azimuth
XW-2D 23 May 07:31:18 07:35:08 64° 283° (WNW) 07:38:55 145.860 - 145.880
XW-2B 23 May 07:39:11 07:42:57 52° 285° (WNW) 07:46:41 145.730 - 145.750
CUTE-I 23 May 07:43:14 07:48:34 80° 285° (WNW) 07:53:55 437.470
XW-2C 23 May 07:52:51 07:56:22 34° 287° (WNW) 07:59:52 145.795 - 145.815
STRAND 1 23 May 07:54:25 07:59:30 80° 257° (WSW) 08:04:37 437.568
XW-2F 23 May 07:54:51 07:58:21 34° 287° (WNW) 08:01:50 145.980 - 146.000
SO-50 23 May 07:56:09 07:59:54 25° 50° (NE) 08:03:40 436.795
RS-15 23 May 07:56:58 08:04:37 18° 356° (N) 08:12:13 29.354- 29.394
SEEDS 23 May 08:01:19 08:04:25 20° 94° (E) 08:07:29 437.485
BEESAT 2 23 May 08:02:25 08:06:07 38° 305° (NW) 08:09:55 435.950
XW-2A 23 May 08:03:41 08:06:38 26° 97° (E) 08:09:34 145.665 - 145.685
NUDT-PHONESAT 23 May 08:06:04 08:09:25 30° 288° (WNW) 08:12:44 437.300
KAITUO 1B 23 May 08:09:14 08:12:30 28° 288° (WNW) 08:15:44 145.475/437.950
M-CUBED/EXP-1 PRIME 23 May 08:15:08 08:19:26 56° 70° (ENE) 08:23:27 437.505
JUGNU 23 May 08:20:54 08:22:48 12° 188° (S) 08:24:43 437.505
DOVE 4 23 May 08:25:37 08:26:36 11° 295° (WNW) 08:27:35 437.250
LilacSat-2 23 May 08:27:52 08:29:51 14° 293° (WNW) 08:31:52 437.200
AO-73 23 May 08:33:32 08:33:46 10° 90° (E) 08:34:00 145.935
CUBEBUG 2 23 May 08:37:11 08:41:29 40° 98° (E) 08:45:52 437.445
CUTE 1.7 + AOD 2 23 May 08:39:17 08:43:35 89° 288° (WNW) 08:47:49 437.475
ZACube-1 23 May 08:42:53 08:45:36 16° 92° (E) 08:48:20 437.345
SRMSAT 23 May 08:52:48 08:55:11 12° 175° (S) 08:57:33 437.500
HO-68 23 May 08:54:57 09:02:11 86° 287° (WNW) 09:09:23 435.675
UWE-3 23 May 08:55:42 08:59:58 38° 98° (E) 09:04:18 435.000/436.395/437.385
NO-84 23 May 09:07:41 09:11:03 22° 125° (SE) 09:14:22 435.350 FM
AAUSAT CUBESAT 2 23 May 09:11:47 09:15:54 62° 101° (E) 09:19:58 437.432
TIGRISAT 23 May 09:13:44 09:15:16 12° 64° (ENE) 09:16:48 435.000
PRISM 23 May 09:23:42 09:26:57 22° 69° (ENE) 09:30:11 437.425
SO-50 23 May 09:36:20 09:40:23 33° 246° (WSW) 09:44:26 436.795
SEEDS 23 May 09:36:25 09:40:06 30° 289° (WNW) 09:43:47 437.485
XW-2A 23 May 09:37:08 09:39:08 15° 291° (WNW) 09:41:09 145.665 - 145.685
FO-29 23 May 09:39:03 09:43:26 28° 68° (ENE) 09:47:51 435.910
UNISAT 6 23 May 09:41:58 09:45:32 27° 70° (ENE) 09:49:09 437.425
Oscar 11 23 May 09:44:03 09:48:19 52° 100° (E) 09:52:32 .
M-CUBED/EXP-1 PRIME 23 May 09:52:23 09:54:01 12° 262° (W) 09:55:36 437.505
DELFI C3 23 May 10:05:39 10:08:45 22° 95° (E) 10:11:50 145.870
AO-73 23 May 10:05:53 10:10:23 69° 285° (WNW) 10:14:55 145.935
RS-15 23 May 10:13:12 10:23:18 28° 32° (NNE) 10:33:01 29.354- 29.394
CUBEBUG 2 23 May 10:14:39 10:17:47 19° 292° (WNW) 10:20:59 437.445
ZACube-1 23 May 10:17:43 10:22:03 45° 287° (WNW) 10:26:24 437.345
UWE-3 23 May 10:32:54 10:36:07 19° 292° (WNW) 10:39:24 435.000/436.395/437.385
SRMSAT 23 May 10:41:16 10:43:28 12° 186° (S) 10:45:39 437.500
NO-84 23 May 10:44:12 10:48:27 49° 319° (NW) 10:52:33 435.350 FM
HO-68 23 May 10:44:50 10:48:52 16° 304° (NW) 10:52:54 435.675
TIGRISAT 23 May 10:47:15 10:51:24 57° 259° (W) 10:55:39 435.000
AAUSAT CUBESAT 2 23 May 10:50:12 10:50:47 10° 296° (WNW) 10:51:22 437.432
PRISM 23 May 10:58:34 11:02:04 26° 263° (W) 11:05:34 437.425
EO-79 23 May 10:58:58 11:00:34 12° 64° (ENE) 11:02:10 145.935-145.965
EO-88 23 May 11:03:52 11:07:33 89° 283° (WNW) 11:11:14 145.990 - 145.960
AIST 2D 23 May 11:08:42 11:11:40 26° 72° (ENE) 11:14:39 435.315
YUBILEINY 23 May 11:18:17 11:21:55 13° 60° (ENE) 11:25:33 435.215
UNISAT 6 23 May 11:18:49 11:22:12 23° 265° (W) 11:25:38 437.425
Oscar 11 23 May 11:21:53 11:23:58 13° 295° (WNW) 11:26:03 .
FO-29 23 May 11:24:00 11:28:30 29° 264° (W) 11:33:00 435.910
DELFI C3 23 May 11:40:17 11:43:26 23° 290° (WNW) 11:46:33 145.870
NANOSAT C BR1 23 May 11:44:08 11:47:55 35° 72° (ENE) 11:51:45 145.865
POLYITAN 1 23 May 11:44:59 11:48:53 40° 72° (ENE) 11:52:50 437.675
QB50P2 23 May 11:53:13 11:57:19 56° 74° (ENE) 12:01:26 145.880/145.840
DUCHIFAT 1 23 May 11:56:43 12:00:39 44° 73° (ENE) 12:04:38 145.980
LO-87 23 May 11:59:24 12:02:52 51° 99° (E) 12:06:19 145.935 - 145.965
NO-84 23 May 12:25:06 12:26:51 12° 337° (NNW) 12:28:34 435.350 FM
RS-15 23 May 12:25:46 12:38:03 81° 59° (ENE) 12:49:39 29.354- 29.394
BUGSAT 1 23 May 12:30:10 12:33:42 30° 71° (ENE) 12:37:14 437.445
EO-79 23 May 12:31:44 12:35:49 54° 260° (W) 12:39:57 145.935-145.965
SPROUT 23 May 12:35:41 12:38:29 17° 94° (E) 12:41:17 437.525
ESTCUBE 1 23 May 12:37:03 12:41:34 76° 102° (ESE) 12:46:03 437.505/2401.250
AIST 2D 23 May 12:42:46 12:44:53 15° 267° (W) 12:47:01 435.315
DX 1 23 May 13:02:51 13:03:49 11° 91° (E) 13:04:46 434.975-435.025
YUBILEINY 23 May 13:11:33 13:20:24 72° 81° (E) 13:29:12 435.215
Oscar 19 23 May 13:20:21 13:25:15 44° 71° (ENE) 13:30:10 437.125/150
NANOSAT C BR1 23 May 13:21:03 13:23:44 16° 267° (W) 13:26:25 145.865
POLYITAN 1 23 May 13:22:30 13:24:50 15° 267° (W) 13:27:11 437.675
QB50P2 23 May 13:32:38 13:33:25 10° 269° (W) 13:34:12 145.880/145.840
DUCHIFAT 1 23 May 13:34:35 13:36:32 13° 268° (W) 13:38:30 145.980
AO-85 23 May 13:35:15 13:36:58 12° 45° (NE) 13:38:44 145.980
50 SAT 23 May 13:40:03 13:43:22 47° 100° (E) 13:46:38 437.505
VELOX 1 23 May 13:48:46 13:53:08 69° 285° (WNW) 13:57:29 145.980
BUGSAT 1 23 May 14:06:24 14:09:05 17° 266° (W) 14:11:47 437.445
Gurwin Techsat 1B 23 May 14:08:19 14:13:36 75° 75° (ENE) 14:18:55 435.225
SPROUT 23 May 14:10:34 14:14:29 36° 288° (WNW) 14:18:24 437.525
ITAMSAT 1 23 May 14:17:26 14:19:29 12° 61° (ENE) 14:21:32 435.822/435.867
AO-7 23 May 14:20:42 14:27:12 27° 57° (ENE) 14:33:43 .
O/OREOS (USA 219) 23 May 14:27:42 14:31:43 31° 62° (ENE) 14:35:42 437.305
UKube-1 23 May 14:35:39 14:39:57 89° 296° (WNW) 14:44:15 .
DX 1 23 May 14:36:04 14:40:20 58° 286° (WNW) 14:44:33 434.975-435.025
RS-15 23 May 14:40:04 14:49:01 26° 259° (W) 14:57:42 29.354- 29.394
Oscar 19 23 May 15:00:54 15:04:43 21° 266° (W) 15:08:33 437.125/150
YUBILEINY 23 May 15:10:01 15:16:15 22° 280° (W) 15:22:29 435.215
BEESAT 3 23 May 15:12:16 15:15:55 32° 53° (NE) 15:19:31 437.485
AO-85 23 May 15:13:41 15:17:44 68° 241° (WSW) 15:22:00 145.980
ITUPSAT 1 23 May 15:24:45 15:28:40 24° 96° (E) 15:32:34 437.325
NO-84 23 May 15:44:44 15:45:25 10° 20° (NNE) 15:46:06 435.350 FM
Gurwin Techsat 1B 23 May 15:52:11 15:54:03 12° 270° (W) 15:55:55 435.225
ITAMSAT 1 23 May 15:53:04 15:58:13 79° 255° (WSW) 16:03:26 435.822/435.867
BEESAT 23 May 16:00:04 16:04:48 59° 101° (E) 16:09:32 436.000
O/OREOS (USA 219) 23 May 16:07:26 16:10:56 22° 258° (WSW) 16:14:22 437.305
AO-7 23 May 16:11:02 16:19:15 69° 255° (WSW) 16:27:33 .
MOZHAYETS 4 23 May 16:13:12 16:17:41 45° 99° (E) 16:22:06
BEESAT 2 23 May 16:21:16 16:25:20 67° 59° (ENE) 16:29:19 435.950
BEESAT 3 23 May 16:50:22 16:53:16 19° 249° (WSW) 16:56:06 437.485
CUBESAT XI-V 23 May 16:50:44 16:54:06 19° 93° (E) 16:57:24 437.345
ITUPSAT 1 23 May 17:02:12 17:06:28 32° 291° (WNW) 17:10:43 437.325
NO-84 23 May 17:20:21 17:23:52 47° 41° (NE) 17:27:03 435.350 FM
CUTE-I 23 May 17:25:43 17:29:05 17° 63° (ENE) 17:32:26 437.470
KKS-1 23 May 17:31:24 17:35:38 44° 99° (E) 17:39:51 437.445
LilacSat-2 23 May 17:33:28 17:35:47 16° 68° (ENE) 17:38:07 437.200
BEESAT 23 May 17:39:33 17:42:03 14° 297° (WNW) 17:44:33 436.000
HO-68 23 May 17:41:24 17:41:53 10° 51° (NE) 17:42:21 435.675
DOVE 4 23 May 17:48:33 17:53:08 48° 74° (ENE) 17:57:26 437.250
MOZHAYETS 4 23 May 17:51:27 17:54:25 17° 294° (WNW) 17:57:24
XW-2D 23 May 18:10:29 18:14:04 43° 74° (ENE) 18:17:43 145.860 - 145.880
STARS 23 May 18:11:52 18:16:09 52° 100° (E) 18:20:25 437.465
AO-7 23 May 18:12:59 18:13:21 10° 272° (W) 18:13:42 .
XW-2B 23 May 18:18:13 18:21:54 52° 75° (ENE) 18:25:38 145.730 - 145.750
CUBESAT XI-V 23 May 18:27:16 18:31:33 37° 289° (WNW) 18:35:48 437.345
XW-2C 23 May 18:31:36 18:35:22 82° 77° (ENE) 18:39:13 145.795 - 145.815
XW-2F 23 May 18:33:11 18:36:57 82° 77° (ENE) 18:40:47 145.980 - 146.000
NUDT-PHONESAT 23 May 18:42:46 18:46:28 86° 78° (ENE) 18:50:13 437.300
KAITUO 1B 23 May 18:46:32 18:50:15 82° 255° (WSW) 18:54:04 145.475/437.950
SEEDS 23 May 18:52:47 18:54:20 12° 65° (ENE) 18:55:52 437.485
NO-84 23 May 18:59:22 19:00:55 13° 239° (WSW) 19:02:25 435.350 FM
CUTE-I 23 May 19:03:24 19:08:36 58° 259° (W) 19:13:51 437.470
LilacSat-2 23 May 19:06:19 19:09:46 32° 263° (W) 19:13:16 437.200
KKS-1 23 May 19:09:06 19:11:49 16° 294° (WNW) 19:14:31 437.445
HO-68 23 May 19:21:07 19:28:06 59° 70° (ENE) 19:35:08 435.675
DOVE 4 23 May 19:28:21 19:30:58 15° 267° (W) 19:33:31 437.250
CUTE 1.7 + AOD 2 23 May 19:29:44 19:33:51 49° 74° (ENE) 19:38:00 437.475
CUBEBUG 2 23 May 19:34:10 19:37:32 24° 70° (ENE) 19:40:56 437.445
XW-2D 23 May 19:47:21 19:48:28 11° 269° (W) 19:49:36 145.860 - 145.880
STARS 23 May 19:49:51 19:52:02 14° 296° (WNW) 19:54:12 437.465
UWE-3 23 May 19:51:33 19:54:50 23° 69° (ENE) 19:58:11 435.000/436.395/437.385
AAUSAT CUBESAT 2 23 May 20:00:01 20:03:43 31° 71° (ENE) 20:07:25 437.432
XW-2A 23 May 20:05:10 20:08:27 58° 260° (W) 20:11:47 145.665 - 145.685
STRAND 1 23 May 20:06:48 20:11:38 40° 98° (E) 20:16:27 437.568
PCSat 23 May 20:06:54 20:12:14 63° 113° (ESE) 20:17:35 145.827
SEEDS 23 May 20:25:19 20:29:29 57° 260° (W) 20:33:41 437.485
Oscar 11 23 May 20:37:02 20:40:51 31° 71° (ENE) 20:44:43 .
DELFI C3 23 May 20:51:17 20:52:23 11° 65° (ENE) 20:53:29 145.870
AO-73 23 May 20:59:16 21:03:25 72° 76° (ENE) 21:07:40 145.935
CUTE 1.7 + AOD 2 23 May 21:08:04 21:09:56 13° 269° (W) 21:11:48 437.475
HO-68 23 May 21:10:37 21:16:10 24° 266° (W) 21:21:47 435.675
CUBEBUG 2 23 May 21:10:46 21:14:04 23° 265° (W) 21:17:26 437.445
ZACube-1 23 May 21:11:18 21:15:28 73° 260° (W) 21:19:44 437.345
Tancredo 1 23 May 21:23:56 21:26:56 57° 138° (SE) 21:29:58 437.200
ISS 23 May 21:24:22 21:27:24 35° 134° (SE) 21:30:26 437.550
UWE-3 23 May 21:27:44 21:31:11 25° 265° (W) 21:34:41 435.000/436.395/437.385
M-CUBED/EXP-1 PRIME 23 May 21:30:01 21:33:13 45° 105° (ESE) 21:36:20 437.505
AAUSAT CUBESAT 2 23 May 21:36:13 21:39:11 19° 266° (W) 21:42:11 437.432
EO-88 23 May 21:40:02 21:43:09 27° 71° (ENE) 21:46:18 145.990 - 145.960
STRAND 1 23 May 21:46:35 21:50:32 23° 294° (WNW) 21:54:29 437.568
PCSat 23 May 21:52:12 21:56:03 19° 312° (NW) 21:59:56 145.827
SO-50 23 May 22:11:33 22:12:48 11° 107° (ESE) 22:14:02 436.795
Oscar 11 23 May 22:13:48 22:17:01 20° 266° (W) 22:20:14 .
DELFI C3 23 May 22:22:45 22:26:39 53° 260° (W) 22:30:35 145.870
FO-29 23 May 22:32:00 22:37:54 37° 98° (E) 22:44:24 435.910
LO-87 23 May 22:34:46 22:37:00 16° 69° (ENE) 22:39:14 145.935 - 145.965
TIGRISAT 23 May 22:40:09 22:44:18 33° 97° (E) 22:48:30 435.000
PRISM 23 May 22:40:53 22:44:47 44° 100° (E) 22:48:39 437.425
Tancredo 1 23 May 23:00:49 23:02:56 17° 334° (NNW) 23:05:04 437.200
ISS 23 May 23:01:08 23:03:56 25° 330° (NNW) 23:06:44 437.550
UNISAT 6 23 May 23:10:35 23:15:11 80° 101° (ESE) 23:19:51 437.425
EO-88 23 May 23:14:34 23:16:51 16° 266° (W) 23:19:09 145.990 - 145.960
SPROUT 23 May 23:29:11 23:30:16 11° 64° (ENE) 23:31:22 437.525
ESTCUBE 1 23 May 23:34:25 23:38:50 55° 74° (ENE) 23:43:17 437.505/2401.250
QB50P2 23 May 23:42:35 23:43:17 10° 91° (E) 23:43:59 145.880/145.840
SO-50 23 May 23:48:04 23:52:39 71° 301° (WNW) 23:57:12 436.795
LO-87 24 May 00:07:11 00:10:13 26° 263° (W) 00:13:15 145.935 - 145.965
AIST 2D 24 May 00:07:58 00:11:22 40° 98° (E) 00:14:44 435.315
50 SAT 24 May 00:11:56 00:13:47 14° 68° (ENE) 00:15:38 437.505
FO-29 24 May 00:17:08 00:22:51 37° 291° (WNW) 00:29:13 435.910
TIGRISAT 24 May 00:17:14 00:20:46 22° 292° (WNW) 00:24:20 435.000
PRISM 24 May 00:17:37 00:19:39 14° 295° (WNW) 00:21:40 437.425
EO-79 24 May 00:18:18 00:21:53 26° 96° (E) 00:25:28 145.935-145.965
YUBILEINY 24 May 00:18:39 00:23:02 15° 77° (ENE) 00:27:25 435.215
RS-15 24 May 00:43:41 00:46:54 11° 93° (E) 00:50:07 29.354- 29.394
VELOX 1 24 May 00:43:44 00:48:10 82° 74° (ENE) 00:52:35 145.980
UNISAT 6 24 May 00:51:05 00:51:14 10° 297° (WNW) 00:51:23 437.425
SPROUT 24 May 01:01:26 01:05:37 61° 259° (W) 01:09:50 437.525
NANOSAT C BR1 24 May 01:05:03 01:09:18 87° 98° (E) 01:13:34 145.865
POLYITAN 1 24 May 01:06:38 01:10:56 82° 282° (WNW) 01:15:12 437.675
ESTCUBE 1 24 May 01:13:58 01:15:56 13° 269° (W) 01:17:55 437.505/2401.250
QB50P2 24 May 01:15:12 01:19:24 58° 285° (WNW) 01:23:35 145.880/145.840
DUCHIFAT 1 24 May 01:17:29 01:21:44 76° 283° (WNW) 01:25:57 145.980
UKube-1 24 May 01:27:57 01:32:11 60° 74° (ENE) 01:36:26 .
DX 1 24 May 01:29:16 01:33:38 87° 262° (W) 01:38:00 434.975-435.025
Oscar 19 24 May 01:34:46 01:38:07 17° 93° (E) 01:41:27 437.125/150
AIST 2D 24 May 01:43:13 01:44:10 11° 293° (WNW) 01:45:06 435.315
50 SAT 24 May 01:43:19 01:46:22 29° 262° (W) 01:49:26 437.505
BUGSAT 1 24 May 01:47:55 01:52:02 71° 102° (ESE) 01:56:11 437.445
EO-79 24 May 01:54:07 01:57:31 24° 291° (WNW) 02:00:55 145.935-145.965
YUBILEINY 24 May 02:09:43 02:18:25 87° 96° (E) 02:27:14 435.215
Gurwin Techsat 1B 24 May 02:26:38 02:31:26 34° 97° (E) 02:36:12 435.225
ITUPSAT 1 24 May 02:29:56 02:33:43 24° 67° (ENE) 02:37:31 437.325
RS-15 24 May 02:44:58 02:56:44 64° 113° (ESE) 03:08:51 29.354- 29.394
BEESAT 24 May 03:04:29 03:09:07 56° 73° (ENE) 03:13:47 436.000
UKube-1 24 May 03:07:49 03:08:33 10° 269° (W) 03:09:16 .
Oscar 19 24 May 03:12:42 03:17:42 51° 288° (WNW) 03:22:39 437.125/150
MOZHAYETS 4 24 May 03:13:14 03:17:24 35° 71° (ENE) 03:21:34
Tancredo 1 24 May 03:50:32 03:53:21 33° 33° (NNE) 03:56:10 437.200
CUBESAT XI-V 24 May 03:52:44 03:55:43 17° 66° (ENE) 03:58:41 437.345
ISS 24 May 03:53:48 03:56:37 26° 30° (NNE) 03:59:25 437.550
Gurwin Techsat 1B 24 May 04:06:46 04:11:13 28° 293° (WNW) 04:15:41 435.225
ITUPSAT 1 24 May 04:07:04 04:11:20 33° 263° (W) 04:15:38 437.325
ITAMSAT 1 24 May 04:07:47 04:12:43 42° 99° (E) 04:17:38 435.822/435.867
YUBILEINY 24 May 04:10:48 04:16:22 18° 295° (WNW) 04:21:59 435.215
AO-7 24 May 04:14:40 04:22:38 47° 101° (E) 04:30:34 .
KKS-1 24 May 04:27:42 04:31:38 33° 70° (ENE) 04:35:36 437.445
O/OREOS (USA 219) 24 May 04:37:40 04:42:06 50° 107° (ESE) 04:46:33 437.305
BEESAT 24 May 04:44:51 04:47:12 14° 268° (W) 04:49:34 436.000
MOZHAYETS 4 24 May 04:51:12 04:54:36 20° 266° (W) 04:58:02
PCSat 24 May 04:56:42 05:01:40 35° 55° (NE) 05:06:35 145.827
RS-15 24 May 04:58:35 05:09:54 42° 316° (NW) 05:21:29 29.354- 29.394
STARS 24 May 05:06:39 05:10:38 36° 71° (ENE) 05:14:38 437.465
AO-85 24 May 05:26:22 05:30:32 57° 118° (ESE) 05:34:29 145.980
Tancredo 1 24 May 05:26:38 05:28:58 20° 229° (SW) 05:31:17 437.200
CUBESAT XI-V 24 May 05:28:08 05:32:39 47° 261° (W) 05:37:14 437.345
ISS 24 May 05:30:09 05:33:08 32° 226° (SW) 05:36:05 437.550
ITAMSAT 1 24 May 05:47:55 05:51:53 22° 294° (WNW) 05:55:51 435.822/435.867
DOVE 4 24 May 05:50:36 05:52:27 13° 92° (E) 05:54:19 437.250
KKS-1 24 May 06:04:56 06:08:13 20° 265° (W) 06:11:31 437.445
AO-7 24 May 06:07:42 06:15:10 39° 298° (WNW) 06:22:41 .
BEESAT 2 24 May 06:11:57 06:14:34 17° 110° (ESE) 06:17:14 435.950
JUGNU 24 May 06:16:49 06:19:29 13° 178° (S) 06:22:09 437.505
O/OREOS (USA 219) 24 May 06:18:59 06:21:49 16° 303° (WNW) 06:24:38 437.305
KAITUO 1B 24 May 06:21:44 06:22:48 11° 91° (E) 06:23:50 145.475/437.950
BEESAT 3 24 May 06:36:59 06:40:55 79° 301° (WNW) 06:44:56 437.485
PCSat 24 May 06:40:14 06:44:56 31° 252° (WSW) 06:49:37 145.827
LilacSat-2 24 May 06:41:06 06:44:29 28° 96° (E) 06:47:49 437.200
STARS 24 May 06:44:07 06:47:03 18° 266° (W) 06:50:01 437.465
AO-85 24 May 07:09:04 07:11:13 14° 314° (NW) 07:13:19 145.980
